Miscellaneous Local Product
Issued by NWS Hastings, NE

Home | Current Version | Previous Version | Graphics & Text | Print | Product List | Glossary On
Versions: 1 2 3 4 5 6 7 8 9 10 11 12 13 14 15 16 17 18 19 20 21 22 23 24 25 26 27 28 29 30 31 32 33 34 35 36 37 38 39 40 41 42 43 44 45 46 47 48 49 50
399
AXUS43 KGID 250302
MISGRI

GID CWA HOURLY WEATHER ROUNDUP
NATIONAL WEATHER SERVICE HASTINGS NE
1000 PM CDT MON APR 24 2017

NOTE: "FAIR" INDICATES FEW OR NO CLOUDS BELOW 12,000 FEET WITH NO
SIGNIFICANT WEATHER AND/OR OBSTRUCTIONS TO VISIBILITY.

...SOUTH CENTRAL NEBRASKA...

CITY           SKY/WX    TMP DP  RH WIND       PRES   REMARKS
GRAND ISLAND   CLEAR     57  44  62 N12       29.57R
HASTINGS       MOCLDY    62  43  49 N18       29.56R
KEARNEY        PTCLDY    57  39  51 N18       29.56F
ORD            CLEAR     50  40  68 N6        29.58R
YORK           CLOUDY    57  41  54 N6        29.55R
AURORA         MOCLDY    59  44  57 N10       29.56R
LEXINGTON      MOCLDY    58  41  52 NE14      29.55F
HOLDREGE       MOCLDY    58  41  52 NE15      29.54S
HEBRON         PTCLDY    65  42  43 N10       29.51R

...NEBRASKA PANHANDLE...

CITY           SKY/WX    TMP DP  RH WIND       PRES   REMARKS
CHADRON        LGT RAIN  50  45  83 E9        29.60R
ALLIANCE       CLOUDY    55  36  48 NW9       29.57R
SCOTTSBLUFF    LGT RAIN  52  45  77 CALM      29.60R
SIDNEY         LGT RAIN  53  39  59 VRB5      29.58S

...WESTERN AND NORTH CENTRAL NEBRASKA...

CITY           SKY/WX    TMP DP  RH WIND       PRES   REMARKS
VALENTINE      PTCLDY    49  39  68 E7        29.62R
AINSWORTH      CLOUDY    45  40  85 NE8       29.62R
ONEILL         PTCLDY    48  39  72 N8        29.61R
BROKEN BOW     CLEAR     51  39  63 N3        29.60R
IMPERIAL       LGT RAIN  60  40  47 NE9       29.56R
NORTH PLATTE   CLOUDY    53  41  63 E12       29.57S
MCCOOK         CLOUDY    61  43  51 E13       29.52R

...EASTERN NEBRASKA...

CITY           SKY/WX    TMP DP  RH WIND       PRES   REMARKS
NORFOLK        MOCLDY    53  41  63 NW16G24   29.57R
SO SIOUX CITY  MOCLDY    57  44  62 NW17      29.53R
TEKAMAH        CLOUDY    64  47  53 VRB5      29.51R
COLUMBUS       CLOUDY    59  45  58 N13       29.56R
ALBION         PTCLDY    54  42  64 N8        29.58R
OMAHA EPPLEY   MOCLDY    68  44  42 S12       29.53R
OFFUTT AFB     PTCLDY    65  43  44 S10       29.53R
MILLARD        CLOUDY    70  47  44 SE9       29.52S
LINCOLN        CLEAR     62  48  60 SE8       29.51S
NEBRASKA CITY  PTCLDY    63  38  39 S10       29.54S
BEATRICE       CLEAR     66  49  54 SE9       29.51S
FALLS CITY     CLEAR     60  44  55 SE8       29.55S

...NORTHERN KANSAS...

CITY           SKY/WX    TMP DP  RH WIND       PRES   REMARKS
GOODLAND       CLOUDY    54  43  66 E7        29.51F
HILL CITY      CLOUDY    63  46  54 E7        29.52R
NORTON         CLEAR     61  39  44 NE14      29.53R
PHILLIPSBURG   CLEAR     63  45  51 N7        29.53R
SMITH CENTER   CLEAR     64  43  45 NE7G21    29.51R
HAYS           CLOUDY    63  48  58 E12       29.49R
RUSSELL        CLOUDY    66  51  58 SE14      29.49R
CONCORDIA      CLOUDY    65  53  65 S13       29.53R
SALINA         CLOUDY    66  52  60 S13       29.52S
TOPEKA         CLOUDY    65  47  52 SE8       29.58R



USA.gov is the U.S. government's official web portal to all federal, state and local government web resources and services.